New River MCAS, NC

9:33 PM EST on November 19, 2017 (GMT -0500)
New River Marine Corps Air Station

Weather History for KNCA - January, 2013

Change the Weather History Date:

Tuesday, January 8, 2013

  Actual Average Record
Temperature  
Mean Temperature 50 °F -  
Max Temperature 64 °F 55 °F 75 °F (2005)
Min Temperature 35 °F 34 °F 16 °F (2015)
Degree Days  
Heating Degree Days 16    
Moisture  
Dew Point 39 °F    
Average Humidity 74    
Maximum Humidity 93    
Minimum Humidity 52    
Precipitation  
Precipitation 0.00 in - - ()
Sea Level Pressure  
Sea Level Pressure 30.41 in    
Wind  
Wind Speed 3 mph (NE)    
Max Wind Speed 7 mph    
Max Gust Speed -    
Visibility 9 miles    
Events      
Averages and records for this station are not official NWS values.
T = Trace of Precipitation, MM = Missing Value Source: NWS Daily Summary

Daily Weather History Graph

Daily Weather History Graph

Search for Another Location

Airport or City:

Trip Planner

Search our weather history database for the weather conditions in past years. The results will help you decide how hot, cold, wet, or windy it might be!

Date:

Astronomy

Jan. 08, 2013 Rise Set
Actual Time 7:17 AM EST 5:15 PM EST
Civil Twilight 6:49 AM EST 5:43 PM EST
Nautical Twilight 6:18 AM EST 6:14 PM EST
Astronomical Twilight 5:48 AM EST 6:45 PM EST
Moon 3:49 AM EST (1/8) 2:15 PM EST (1/8)
Length of Visible Light 10h 53m
Length of Day
9h 58m
Waning Crescent, 14% of the Moon is Illuminated
Jan 8
Waning Crescent
Jan 11
New
Jan 18
First Quarter
Jan 26
Full
Feb 3
Last Quarter

Hourly Weather History & Observations

Time (EST) Temp. Windchill Dew Point Humidity Pressure Visibility Wind Dir Wind Speed Gust Speed Precip Events Conditions
12:56 AM 39.9 °F 35.8 °F 32.0 °F 73% 30.42 in 10.0 mi NNE 5.8 mph - N/A   Clear
1:56 AM 39.0 °F 35.7 °F 30.9 °F 73% 30.42 in 10.0 mi NE 4.6 mph - N/A   Clear
2:56 AM 39.0 °F 34.0 °F 30.9 °F 73% 30.40 in 10.0 mi NE 6.9 mph - N/A   Clear
3:56 AM 37.9 °F 34.4 °F 30.0 °F 73% 30.39 in 10.0 mi NE 4.6 mph - N/A   Clear
4:56 AM 37.0 °F 33.3 °F 30.0 °F 76% 30.39 in 10.0 mi North 4.6 mph - N/A   Clear
5:56 AM 35.1 °F 31.0 °F 30.0 °F 82% 30.40 in 10.0 mi North 4.6 mph - N/A   Clear
6:56 AM 36.0 °F 32.1 °F 30.0 °F 79% 30.42 in 10.0 mi North 4.6 mph - N/A   Clear
7:56 AM 36.0 °F 32.1 °F 30.9 °F 82% 30.43 in 10.0 mi North 4.6 mph - N/A   Partly Cloudy
8:56 AM 45.0 °F - 36.0 °F 71% 30.45 in 10.0 mi Calm Calm - N/A   Scattered Clouds
9:56 AM 51.1 °F - 37.9 °F 61% 30.45 in 10.0 mi Calm Calm - N/A   Mostly Cloudy
10:56 AM 54.0 °F - 41.0 °F 62% 30.45 in 10.0 mi Calm Calm - N/A   Mostly Cloudy
11:56 AM 57.0 °F - 43.0 °F 59% 30.41 in 10.0 mi Calm Calm - N/A   Overcast
12:56 PM 62.1 °F - 46.0 °F 56% 30.38 in 10.0 mi Variable 3.5 mph - N/A   Overcast
1:56 PM 64.0 °F - 46.0 °F 52% 30.37 in 10.0 mi East 3.5 mph - N/A   Mostly Cloudy
2:56 PM 64.0 °F - 46.9 °F 54% 30.38 in 10.0 mi SE 4.6 mph - N/A   Overcast
3:56 PM 62.1 °F - 46.0 °F 56% 30.38 in 10.0 mi SSE 4.6 mph - N/A   Mostly Cloudy
4:56 PM 60.1 °F - 46.9 °F 62% 30.39 in 10.0 mi Calm Calm - N/A   Overcast
5:56 PM 54.0 °F - 46.0 °F 75% 30.40 in 10.0 mi Calm Calm - N/A   Partly Cloudy
6:56 PM 52.0 °F - 46.0 °F 80% 30.41 in 10.0 mi North 3.5 mph - N/A   Scattered Clouds
7:56 PM 52.0 °F - 46.0 °F 80% 30.41 in 10.0 mi Calm Calm - N/A   Clear
8:56 PM 48.0 °F - 44.1 °F 86% 30.41 in 10.0 mi Calm Calm - N/A   Clear
9:56 PM 46.9 °F - 43.0 °F 86% 30.41 in 7.0 mi Calm Calm - N/A   Clear
10:20 PM 44.6 °F - 41.0 °F 87% 30.40 in 1.2 mi Calm Calm - N/A   Clear
10:22 PM 44.6 °F - 41.0 °F 87% 30.40 in 0.8 mi Calm Calm - N/A   Clear
10:37 PM 44.6 °F - 42.8 °F 93% 30.40 in 8.0 mi Calm Calm - N/A   Clear
10:56 PM 46.0 °F 44.8 °F 42.1 °F 86% 30.40 in 8.0 mi North 3.5 mph - N/A   Clear
11:56 PM 44.1 °F - 39.9 °F 85% 30.40 in 3.0 mi Calm Calm - N/A   Clear